NKS1483 KFLL-TJSJ

Flight info

Callsign NKS1483
Flight time N/A
Altitude 35000
Route SNAPR2 SUMAC Y421 HAGIT Y290 BEANO BEANO3
Aircraft A321/M-SDE3FGHIRWY/LB1

Departure

Time 2026-05-04 22:40
Airport Fort Lauderdale Hollywood International Airport (KFLL)

Arrival

Time N/A
Airport Luis Munoz Marin International Airport (TJSJ)
Time Latitude Longitude Altitude Speed Heading
2026-05-04 22:06 26.06876 -80.14385 16 ft 0 kts
2026-05-04 22:32 26.06857 -80.14385 16 ft 4 kts
2026-05-04 22:32 26.06836 -80.14385 17 ft 4 kts 349°
2026-05-04 22:32 26.06819 -80.14374 16 ft 4 kts 277°
2026-05-04 22:33 26.06818 -80.14347 16 ft 2 kts 270°
2026-05-04 22:33 26.06818 -80.14344 16 ft 0 kts 270°
2026-05-04 22:35 26.06818 -80.14352 16 ft 4 kts 270°
2026-05-04 22:36 26.06818 -80.14428 16 ft 12 kts 270°
2026-05-04 22:36 26.06817 -80.14539 16 ft 14 kts 268°
2026-05-04 22:36 26.06768 -80.14625 15 ft 14 kts 258°
2026-05-04 22:36 26.06767 -80.14755 15 ft 18 kts 270°
2026-05-04 22:37 26.06767 -80.14900 15 ft 19 kts 270°
2026-05-04 22:37 26.06767 -80.15046 16 ft 19 kts 270°
2026-05-04 22:37 26.06733 -80.15128 18 ft 10 kts 189°
2026-05-04 22:37 26.06695 -80.15176 21 ft 11 kts 268°
2026-05-04 22:38 26.06696 -80.15308 16 ft 22 kts 270°
2026-05-04 22:38 26.06697 -80.15482 16 ft 22 kts 270°
2026-05-04 22:38 26.06698 -80.15634 16 ft 12 kts 270°
2026-05-04 22:38 26.06698 -80.15717 16 ft 11 kts 270°
2026-05-04 22:39 26.06690 -80.15799 16 ft 10 kts 237°
2026-05-04 22:39 26.06627 -80.15822 17 ft 10 kts 178°
2026-05-04 22:39 26.06591 -80.15795 18 ft 6 kts 107°
2026-05-04 22:39 26.06589 -80.15750 19 ft 10 kts 90°
2026-05-04 22:40 26.06589 -80.15393 22 ft 83 kts 90°
2026-05-04 22:40 26.06583 -80.14508 43 ft 142 kts 90°
2026-05-04 22:40 26.06583 -80.13324 510 ft 153 kts 89°
2026-05-04 22:40 26.06605 -80.12144 1230 ft 154 kts 88°
2026-05-04 22:41 26.06626 -80.10904 1652 ft 167 kts 88°
2026-05-04 22:41 26.06647 -80.09523 1803 ft 190 kts 88°
2026-05-04 22:41 26.06666 -80.07969 1959 ft 211 kts 88°
2026-05-04 22:41 26.06685 -80.06261 2080 ft 237 kts 88°
2026-05-04 22:42 26.06702 -80.04348 2555 ft 249 kts 88°
2026-05-04 22:42 26.06714 -80.02406 3284 ft 251 kts 88°
2026-05-04 22:42 26.06723 -80.00479 4007 ft 254 kts 88°
2026-05-04 22:42 26.06719 -79.98485 4648 ft 260 kts 89°
2026-05-04 22:43 26.06701 -79.96449 5241 ft 267 kts 90°
2026-05-04 22:43 26.06679 -79.94359 5842 ft 272 kts 90°
2026-05-04 22:43 26.06656 -79.92221 6423 ft 279 kts 90°
2026-05-04 22:43 26.06632 -79.90077 7048 ft 282 kts 90°
2026-05-04 22:44 26.06607 -79.87887 7675 ft 285 kts 90°
2026-05-04 22:44 26.06585 -79.85660 8261 ft 289 kts 89°
2026-05-04 22:44 26.06551 -79.83399 8791 ft 295 kts 92°
2026-05-04 22:44 26.06258 -79.81113 9280 ft 302 kts 99°
2026-05-04 22:45 26.05893 -79.78784 9773 ft 307 kts 100°
2026-05-04 22:45 26.05136 -79.73978 10363 ft 334 kts 101°
2026-05-04 22:45 26.04726 -79.71361 10495 ft 353 kts 101°
2026-05-04 22:46 26.04302 -79.68644 10621 ft 371 kts 101°
2026-05-04 22:46 26.03844 -79.65713 10866 ft 384 kts 101°
2026-05-04 22:46 26.03322 -79.62775 11329 ft 389 kts 104°
2026-05-04 22:46 26.02694 -79.59878 11836 ft 392 kts 106°
2026-05-04 22:47 26.01976 -79.56892 12348 ft 397 kts 107°
2026-05-04 22:47 26.01241 -79.53952 12856 ft 401 kts 108°
2026-05-04 22:47 26.00489 -79.50944 13383 ft 405 kts 107°
2026-05-04 22:47 25.99741 -79.47901 13899 ft 409 kts 107°
2026-05-04 22:48 25.99002 -79.44834 14397 ft 413 kts 107°
2026-05-04 22:48 25.98263 -79.41719 14881 ft 418 kts 107°
2026-05-04 22:48 25.97508 -79.38584 15361 ft 421 kts 109°
2026-05-04 22:48 25.96511 -79.35542 15820 ft 424 kts 113°
2026-05-04 22:49 25.95450 -79.32469 16311 ft 427 kts 114°
2026-05-04 22:49 25.94371 -79.29369 16774 ft 431 kts 114°
2026-05-04 22:49 25.93281 -79.26246 17229 ft 435 kts 114°
2026-05-04 22:49 25.92181 -79.23098 17669 ft 439 kts 114°
2026-05-04 22:50 25.91069 -79.19918 18110 ft 442 kts 114°
2026-05-04 22:50 25.89953 -79.16718 18570 ft 445 kts 114°
2026-05-04 22:50 25.88845 -79.13542 19000 ft 448 kts 114°
2026-05-04 22:50 25.87714 -79.10302 19421 ft 451 kts 114°
2026-05-04 22:51 25.86573 -79.07035 19832 ft 454 kts 114°
2026-05-04 22:51 25.85426 -79.03755 20246 ft 457 kts 114°
2026-05-04 22:51 25.84271 -79.00459 20634 ft 459 kts 114°
2026-05-04 22:51 25.83111 -78.97146 21002 ft 462 kts 114°
2026-05-04 22:52 25.81947 -78.93820 21362 ft 464 kts 114°
2026-05-04 22:52 25.80770 -78.90470 21691 ft 466 kts 114°
2026-05-04 22:52 25.79586 -78.87104 22051 ft 468 kts 114°
2026-05-04 22:52 25.78401 -78.83734 22407 ft 470 kts 114°
2026-05-04 22:53 25.77228 -78.80396 22712 ft 472 kts 114°
2026-05-04 22:53 25.76029 -78.76989 23023 ft 474 kts 114°
2026-05-04 22:53 25.74819 -78.73583 23332 ft 476 kts 116°
2026-05-04 22:53 25.73318 -78.70325 23629 ft 473 kts 125°
2026-05-04 22:54 25.71499 -78.67313 23830 ft 463 kts 128°
2026-05-04 22:54 25.69706 -78.64400 23940 ft 450 kts 128°
2026-05-04 22:54 25.67988 -78.61595 24061 ft 437 kts 128°
2026-05-04 22:54 25.66296 -78.58829 24185 ft 427 kts 128°
2026-05-04 22:55 25.64650 -78.56138 24307 ft 416 kts 129°
2026-05-04 22:55 25.63044 -78.53518 24433 ft 405 kts 129°
2026-05-04 22:55 25.62003 -78.51818 24512 ft 398 kts 129°
2026-05-04 22:55 25.59976 -78.48512 24670 ft 383 kts 129°
2026-05-04 22:56 25.58591 -78.46041 24791 ft 374 kts 122°
2026-05-04 22:56 25.57825 -78.44336 24866 ft 369 kts 118°
2026-05-04 22:56 25.56915 -78.41707 24981 ft 360 kts 111°
2026-05-04 22:56 25.56028 -78.38241 25141 ft 344 kts 109°
2026-05-04 22:57 25.55598 -78.36535 25201 ft 336 kts 110°
2026-05-04 22:57 25.54965 -78.34066 25063 ft 333 kts 110°
2026-05-04 22:57 25.54317 -78.31610 24634 ft 340 kts 110°
2026-05-04 22:57 25.53631 -78.29078 24292 ft 344 kts 111°
2026-05-04 22:58 25.52934 -78.26564 24257 ft 336 kts 111°
2026-05-04 22:58 25.52248 -78.24125 24222 ft 329 kts 112°
2026-05-04 22:58 25.51555 -78.21703 23946 ft 331 kts 112°
2026-05-04 22:58 25.50837 -78.19256 23624 ft 335 kts 112°
2026-05-04 22:59 25.50106 -78.16814 23461 ft 332 kts 113°
2026-05-04 22:59 25.49382 -78.14439 23402 ft 326 kts 113°